Time,TemperatureF,DewpointF,PressureIn,WindDirection,WindDirectionDegrees,WindSpeedMPH,WindSpeedGustMPH,Humidity,HourlyPrecipIn,Conditions,Clouds,dailyrainin,SoftwareType,DateUTC
2013-06-09 00:05:00,61.2,54.0,29.78,SE,143,0.0,0.0,78,0.00,,,0.00,weatherlink.com 1.10,2013-06-09 07:05:00,
2013-06-09 00:20:00,61.2,54.0,29.78,SE,143,0.0,2.0,78,0.00,,,0.00,weatherlink.com 1.10,2013-06-09 07:20:00,
2013-06-09 00:35:00,60.9,54.0,29.78,SE,142,0.0,1.0,78,0.00,,,0.00,weatherlink.com 1.10,2013-06-09 07:35:00,
2013-06-09 00:50:00,60.5,54.0,29.78,SE,142,0.0,1.0,79,0.00,,,0.00,weatherlink.com 1.10,2013-06-09 07:50:00,
2013-06-09 01:05:00,60.3,54.0,29.78,SE,143,0.0,0.0,80,0.00,,,0.00,weatherlink.com 1.10,2013-06-09 08:05:00,
2013-06-09 01:20:00,60.1,54.0,29.78,South,173,0.0,2.0,80,0.00,,,0.00,weatherlink.com 1.10,2013-06-09 08:20:00,
2013-06-09 01:35:00,59.9,54.0,29.78,South,173,0.0,1.0,80,0.00,,,0.00,weatherlink.com 1.10,2013-06-09 08:35:00,
2013-06-09 01:50:00,59.6,53.0,29.79,South,173,0.0,1.0,80,0.00,,,0.00,weatherlink.com 1.10,2013-06-09 08:50:00,
2013-06-09 02:05:00,59.3,54.0,29.78,South,173,0.0,1.0,81,0.00,,,0.00,weatherlink.com 1.10,2013-06-09 09:05:00,
2013-06-09 02:20:00,59.0,53.0,29.78,South,173,0.0,0.0,81,0.00,,,0.00,weatherlink.com 1.10,2013-06-09 09:20:00,
2013-06-09 02:35:00,58.6,54.0,29.78,South,173,0.0,0.0,83,0.00,,,0.00,weatherlink.com 1.10,2013-06-09 09:35:00,
2013-06-09 02:50:00,58.5,54.0,29.78,South,173,0.0,0.0,84,0.00,,,0.00,weatherlink.com 1.10,2013-06-09 09:50:00,
2013-06-09 03:05:00,58.3,54.0,29.79,South,173,0.0,0.0,84,0.00,,,0.00,weatherlink.com 1.10,2013-06-09 10:05:00,
2013-06-09 03:20:00,58.0,54.0,29.79,South,173,0.0,0.0,85,0.00,,,0.00,weatherlink.com 1.10,2013-06-09 10:20:00,
2013-06-09 03:35:00,57.9,54.0,29.78,South,173,1.0,1.0,85,0.00,,,0.00,weatherlink.com 1.10,2013-06-09 10:35:00,
2013-06-09 03:50:00,57.8,53.0,29.78,South,173,0.0,1.0,85,0.00,,,0.00,weatherlink.com 1.10,2013-06-09 10:50:00,
2013-06-09 04:05:00,57.7,53.0,29.78,South,173,0.0,0.0,85,0.00,,,0.00,weatherlink.com 1.10,2013-06-09 11:05:00,
2013-06-09 04:20:00,57.5,53.0,29.78,South,173,0.0,0.0,85,0.00,,,0.00,weatherlink.com 1.10,2013-06-09 11:20:00,
2013-06-09 04:35:00,57.1,53.0,29.78,South,173,0.0,0.0,86,0.00,,,0.00,weatherlink.com 1.10,2013-06-09 11:35:00,
2013-06-09 04:50:00,57.2,53.0,29.78,South,173,0.0,1.0,86,0.00,,,0.00,weatherlink.com 1.10,2013-06-09 11:50:00,
2013-06-09 05:05:00,57.1,53.0,29.79,South,173,0.0,0.0,86,0.00,,,0.00,weatherlink.com 1.10,2013-06-09 12:05:00,
2013-06-09 05:20:00,56.8,53.0,29.79,South,173,0.0,0.0,87,0.00,,,0.00,weatherlink.com 1.10,2013-06-09 12:20:00,
2013-06-09 05:35:00,56.6,53.0,29.79,South,173,0.0,0.0,88,0.00,,,0.00,weatherlink.com 1.10,2013-06-09 12:35:00,
2013-06-09 05:50:00,56.6,53.0,29.80,South,173,0.0,0.0,88,0.00,,,0.00,weatherlink.com 1.10,2013-06-09 12:50:00,
2013-06-09 06:05:00,56.9,53.0,29.80,South,173,0.0,2.0,87,0.00,,,0.00,weatherlink.com 1.10,2013-06-09 13:05:00,
2013-06-09 06:20:00,57.3,54.0,29.81,South,173,1.0,1.0,87,0.00,,,0.00,weatherlink.com 1.10,2013-06-09 13:20:00,
2013-06-09 06:35:00,58.0,54.0,29.81,South,173,0.0,1.0,86,0.00,,,0.00,weatherlink.com 1.10,2013-06-09 13:35:00,
2013-06-09 06:51:00,58.5,54.0,29.81,South,173,0.0,1.0,86,0.00,,,0.00,weatherlink.com 1.10,2013-06-09 13:51:00,
2013-06-09 07:06:00,59.1,55.0,29.82,South,173,0.0,1.0,85,0.00,,,0.00,weatherlink.com 1.10,2013-06-09 14:06:00,
2013-06-09 07:21:00,60.2,55.0,29.81,South,173,0.0,1.0,83,0.00,,,0.00,weatherlink.com 1.10,2013-06-09 14:21:00,
2013-06-09 07:36:00,61.8,56.0,29.82,South,173,2.0,2.0,81,0.00,,,0.00,weatherlink.com 1.10,2013-06-09 14:36:00,
2013-06-09 07:51:00,62.1,56.0,29.82,SSE,167,1.0,4.0,81,0.00,,,0.00,weatherlink.com 1.10,2013-06-09 14:51:00,
2013-06-09 08:06:00,63.0,57.0,29.82,ESE,113,1.0,4.0,80,0.00,,,0.00,weatherlink.com 1.10,2013-06-09 15:06:00,
2013-06-09 08:21:00,63.7,57.0,29.82,ESE,117,1.0,5.0,78,0.00,,,0.00,weatherlink.com 1.10,2013-06-09 15:21:00,
2013-06-09 08:36:00,64.8,57.0,29.82,ENE,78,1.0,4.0,76,0.00,,,0.00,weatherlink.com 1.10,2013-06-09 15:36:00,
2013-06-09 09:06:00,65.9,57.0,29.83,NE,34,4.0,4.0,74,0.00,,,0.00,weatherlink.com 1.10,2013-06-09 16:06:00,
2013-06-09 09:21:00,65.6,58.0,29.83,ENE,62,0.0,7.0,75,0.00,,,0.00,weatherlink.com 1.10,2013-06-09 16:21:00,
2013-06-09 09:36:00,66.8,58.0,29.83,NNE,27,2.0,5.0,73,0.00,,,0.00,weatherlink.com 1.10,2013-06-09 16:36:00,
2013-06-09 09:51:00,67.9,57.0,29.83,ENE,59,3.0,5.0,69,0.00,,,0.00,weatherlink.com 1.10,2013-06-09 16:51:00,
2013-06-09 10:06:00,68.5,57.0,29.82,ENE,63,2.0,4.0,68,0.00,,,0.00,weatherlink.com 1.10,2013-06-09 17:06:00,
2013-06-09 10:21:00,68.7,57.0,29.82,NE,51,3.0,7.0,67,0.00,,,0.00,weatherlink.com 1.10,2013-06-09 17:21:00,
2013-06-09 10:36:00,69.0,58.0,29.82,ESE,107,3.0,7.0,68,0.00,,,0.00,weatherlink.com 1.10,2013-06-09 17:36:00,
2013-06-09 10:51:00,69.8,58.0,29.83,East,82,3.0,5.0,66,0.00,,,0.00,weatherlink.com 1.10,2013-06-09 17:51:00,
2013-06-09 11:06:00,69.8,58.0,29.83,ENE,59,2.0,7.0,66,0.00,,,0.00,weatherlink.com 1.10,2013-06-09 18:06:00,
2013-06-09 11:21:00,69.9,58.0,29.82,NNE,28,4.0,7.0,65,0.00,,,0.00,weatherlink.com 1.10,2013-06-09 18:21:00,
2013-06-09 11:51:00,70.8,58.0,29.83,East,90,6.0,9.0,65,0.00,,,0.00,weatherlink.com 1.10,2013-06-09 18:51:00,
2013-06-09 12:36:00,74.2,58.0,29.82,East,92,1.0,9.0,58,0.00,,,0.00,weatherlink.com 1.10,2013-06-09 19:36:00,
2013-06-09 12:51:00,74.6,58.0,29.82,NW,318,1.0,11.0,56,0.00,,,0.00,weatherlink.com 1.10,2013-06-09 19:51:00,
2013-06-09 13:06:00,75.0,58.0,29.81,NE,38,1.0,8.0,55,0.00,,,0.00,weatherlink.com 1.10,2013-06-09 20:06:00,
2013-06-09 13:21:00,75.0,58.0,29.81,East,92,1.0,8.0,55,0.00,,,0.00,weatherlink.com 1.10,2013-06-09 20:21:00,
2013-06-09 13:36:00,75.0,58.0,29.81,NNW,348,2.0,8.0,55,0.00,,,0.00,weatherlink.com 1.10,2013-06-09 20:36:00,
2013-06-09 13:51:00,74.8,57.0,29.80,ESE,123,1.0,9.0,55,0.00,,,0.00,weatherlink.com 1.10,2013-06-09 20:51:00,
2013-06-09 14:06:00,75.8,57.0,29.80,South,189,9.0,13.0,53,0.00,,,0.00,weatherlink.com 1.10,2013-06-09 21:06:00,
2013-06-09 14:21:00,75.1,56.0,29.80,South,174,4.0,11.0,52,0.00,,,0.00,weatherlink.com 1.10,2013-06-09 21:21:00,
2013-06-09 14:36:00,73.0,56.0,29.81,South,177,5.0,13.0,56,0.00,,,0.00,weatherlink.com 1.10,2013-06-09 21:36:00,
2013-06-09 14:52:00,72.3,56.0,29.81,SE,134,4.0,12.0,57,0.00,,,0.00,weatherlink.com 1.10,2013-06-09 21:52:00,
2013-06-09 15:07:00,71.0,56.0,29.81,SSE,162,5.0,12.0,59,0.00,,,0.00,weatherlink.com 1.10,2013-06-09 22:07:00,
2013-06-09 15:22:00,69.8,56.0,29.81,WNW,285,3.0,12.0,61,0.00,,,0.00,weatherlink.com 1.10,2013-06-09 22:22:00,
2013-06-09 15:37:00,69.7,56.0,29.81,WSW,242,2.0,13.0,62,0.00,,,0.00,weatherlink.com 1.10,2013-06-09 22:37:00,
2013-06-09 15:52:00,70.4,56.0,29.81,South,187,3.0,10.0,60,0.00,,,0.00,weatherlink.com 1.10,2013-06-09 22:52:00,
2013-06-09 16:07:00,70.5,56.0,29.81,West,279,1.0,12.0,60,0.00,,,0.00,weatherlink.com 1.10,2013-06-09 23:07:00,
2013-06-09 16:22:00,71.1,56.0,29.81,South,178,3.0,9.0,59,0.00,,,0.00,weatherlink.com 1.10,2013-06-09 23:22:00,
2013-06-09 16:37:00,71.8,56.0,29.81,South,180,2.0,8.0,57,0.00,,,0.00,weatherlink.com 1.10,2013-06-09 23:37:00,
2013-06-09 16:52:00,70.9,55.0,29.81,West,269,4.0,13.0,58,0.00,,,0.00,weatherlink.com 1.10,2013-06-09 23:52:00,
2013-06-09 17:07:00,70.1,55.0,29.81,WSW,253,6.0,13.0,60,0.00,,,0.00,weatherlink.com 1.10,2013-06-10 00:07:00,
2013-06-09 17:22:00,69.2,55.0,29.81,South,184,5.0,8.0,61,0.00,,,0.00,weatherlink.com 1.10,2013-06-10 00:22:00,
2013-06-09 17:37:00,68.7,55.0,29.81,South,182,7.0,10.0,61,0.00,,,0.00,weatherlink.com 1.10,2013-06-10 00:37:00,
2013-06-09 17:52:00,69.0,55.0,29.81,SSW,194,8.0,11.0,61,0.00,,,0.00,weatherlink.com 1.10,2013-06-10 00:52:00,
2013-06-09 18:07:00,68.9,55.0,29.81,South,186,3.0,7.0,61,0.00,,,0.00,weatherlink.com 1.10,2013-06-10 01:07:00,
2013-06-09 18:22:00,67.7,54.0,29.81,SSW,209,6.0,12.0,61,0.00,,,0.00,weatherlink.com 1.10,2013-06-10 01:22:00,
2013-06-09 18:37:00,67.2,54.0,29.81,South,169,7.0,9.0,63,0.00,,,0.00,weatherlink.com 1.10,2013-06-10 01:37:00,
2013-06-09 18:52:00,66.7,54.0,29.81,SSW,201,4.0,8.0,64,0.00,,,0.00,weatherlink.com 1.10,2013-06-10 01:52:00,
2013-06-09 19:07:00,66.1,54.0,29.82,South,175,2.0,9.0,65,0.00,,,0.00,weatherlink.com 1.10,2013-06-10 02:07:00,
2013-06-09 19:22:00,64.4,53.0,29.82,South,186,3.0,7.0,67,0.00,,,0.00,weatherlink.com 1.10,2013-06-10 02:22:00,
2013-06-09 19:37:00,63.1,53.0,29.83,WNW,298,2.0,10.0,70,0.00,,,0.00,weatherlink.com 1.10,2013-06-10 02:37:00,
2013-06-09 19:52:00,62.6,53.0,29.83,SSW,199,5.0,13.0,71,0.00,,,0.00,weatherlink.com 1.10,2013-06-10 02:52:00,
2013-06-09 20:07:00,62.1,53.0,29.83,SSW,199,3.0,7.0,72,0.00,,,0.00,weatherlink.com 1.10,2013-06-10 03:07:00,
2013-06-09 20:22:00,61.7,53.0,29.83,SSW,211,2.0,7.0,73,0.00,,,0.00,weatherlink.com 1.10,2013-06-10 03:22:00,
2013-06-09 20:37:00,61.4,53.0,29.83,SSW,196,3.0,4.0,73,0.00,,,0.00,weatherlink.com 1.10,2013-06-10 03:37:00,
2013-06-09 20:52:00,60.9,53.0,29.82,WSW,251,1.0,5.0,74,0.00,,,0.00,weatherlink.com 1.10,2013-06-10 03:52:00,
2013-06-09 21:07:00,60.6,53.0,29.83,West,266,0.0,4.0,75,0.00,,,0.00,weatherlink.com 1.10,2013-06-10 04:07:00,
2013-06-09 21:22:00,60.4,52.0,29.83,WSW,243,0.0,3.0,75,0.00,,,0.00,weatherlink.com 1.10,2013-06-10 04:22:00,
2013-06-09 21:37:00,60.3,52.0,29.84,WSW,240,0.0,2.0,75,0.00,,,0.00,weatherlink.com 1.10,2013-06-10 04:37:00,
2013-06-09 21:52:00,60.2,52.0,29.84,West,265,0.0,3.0,75,0.00,,,0.00,weatherlink.com 1.10,2013-06-10 04:52:00,
2013-06-09 22:07:00,60.2,52.0,29.84,SSW,200,3.0,5.0,75,0.00,,,0.00,weatherlink.com 1.10,2013-06-10 05:07:00,
2013-06-09 22:22:00,59.9,52.0,29.84,SSW,208,1.0,4.0,76,0.00,,,0.00,weatherlink.com 1.10,2013-06-10 05:22:00,
2013-06-09 22:37:00,59.7,52.0,29.85,SSW,208,0.0,3.0,76,0.00,,,0.00,weatherlink.com 1.10,2013-06-10 05:37:00,
2013-06-09 22:52:00,59.6,52.0,29.84,WSW,238,0.0,3.0,76,0.00,,,0.00,weatherlink.com 1.10,2013-06-10 05:52:00,
2013-06-09 23:07:00,59.4,52.0,29.85,WSW,238,0.0,1.0,76,0.00,,,0.00,weatherlink.com 1.10,2013-06-10 06:07:00,
2013-06-09 23:22:00,59.3,52.0,29.85,WSW,238,0.0,2.0,76,0.00,,,0.00,weatherlink.com 1.10,2013-06-10 06:22:00,
2013-06-09 23:37:00,59.4,52.0,29.86,South,188,0.0,4.0,76,0.00,,,0.00,weatherlink.com 1.10,2013-06-10 06:37:00,
2013-06-09 23:52:00,59.3,51.0,29.86,SSW,204,2.0,6.0,75,0.00,,,0.00,weatherlink.com 1.10,2013-06-10 06:52:00,